Location: Carri�res
(48.9069°N, 2.1792°E)
Time: 03:55:10
(UTC+00:00)

Cosmos 1300 - Pass Details

Date: 17 January 2021
Orbit: 511 x 512 km, 82.5° (Epoch: 26 February)

Event Time Altitude Azimuth Distance (km) Brightness Sun altitude
Rises 18:12:00 0° 345° (NNW) 2,642 6.3 -17.0°
Reaches altitude 10° 18:14:12 10° 339° (NNW) 1,749 5.5 -17.4°
Maximum altitude 18:17:52 46° 266° (W) 705 3.8 -18.0°
Drops below altitude 10° 18:21:31 10° 193° (SSW) 1,734 5.6 -18.6°
Sets 18:23:41 0° 187° (S) 2,615 6.5 -18.9°
